{"data":{"norad_id":60124,"intl_designator":"2024-118M","name":"STARLINK-11161 [DTC]","alt_names":[],"object_type":"PAYLOAD","status":"ACTIVE","operator":null,"country":"US","launch_date":"2024-06-24","launch_site_code":"AFWTR","launch_vehicle":null,"mission":null,"orbit_class":"UNKNOWN","rcs_meters":null,"size_class":null,"mass_kg":null,"dimensions":null,"purposes":["comms"],"wikipedia_slug":null,"has_3d_model":false,"image_url":null,"decayed_at":null,"tle_current":{"epoch":"2026-09-21T12:10:18.293088Z","epoch_age_seconds":95261,"freshness":"FRESH","line1":"1 60124U 24118M   26264.50715617 -.00013152  00000+0 -10379-3 0  9997","line2":"2 60124  53.1578 336.3170 0000805  72.1551 287.9555 15.69730804128747","mean_motion":15.69730804,"eccentricity":8.05e-5,"inclination_deg":53.1578,"raan_deg":336.317,"arg_perigee_deg":72.1551,"mean_anomaly_deg":287.9555,"bstar":-0.00010379,"rev_number":12874,"period_min":91.735474409407,"perigee_km":359.12482475309,"apogee_km":360.20961123218,"semimajor_km":6737.8042179926,"source":"CELESTRAK","updated_at":"2026-09-22T09:00:49.156774Z"}}}